Location: Bakhuizen
(52.8696°N, 5.4575°E)
Time: 22:45:00
(UTC+00:00)

Cosmos 1943 Rocket - Pass Details

Date: 11 May 2021
Orbit: 814 x 842 km, 71.0° (Epoch: 24 June)

Event Time Altitude Azimuth Distance (km) Brightness Sun altitude
Exits shadow 22:13:50 28° 165° (SSE) 1,525 2.9 -16.9°
Maximum altitude 22:16:20 45° 111° (ESE) 1,125 2.6 -17.0°
Drops below altitude 10° 22:21:38 10° 40° (NE) 2,444 5.0 -17.3°
Sets 22:24:09 0° 35° (NE) 3,377 5.9 -17.4°
